University of South Florida FL US WEATHERSTEM current weather conditions

sailwx.info

Wind from 070 at 4 knots gusting 6

Air temperature 9.7° C
Dewpoint 5.4° C

Last reported at 2020-Feb-23 10:00 UTC.
Time now 2020-Feb-23 11:10 UTC

Location: N 28°04' W 082°25'.
View on Google Maps.

See reports from other nearby stations

  
Tides and Currents Weather Stations Pressure Air Temp Water Temp Dewpoint Dewpoint Depression Visibility Wind Speed Wind Dir Waves Ship Positions
date/time (UTC)wind fromknots sea level pressurealtimeterstation pressurevisibilityair tempwater tempwave heightnotes
2020-Feb-23 10:00 070 4 gusting 6 9.7
2020-Feb-23 09:50 049 1 gusting 5 9.8
2020-Feb-23 09:40 072 3 gusting 6 9.8
2020-Feb-23 09:30 071 4 gusting 7 9.8
2020-Feb-23 09:10 082 3 gusting 7 10.0
2020-Feb-23 08:50 032 2 gusting 8 10.0
2020-Feb-23 08:40 026 4 gusting 6 10.0
2020-Feb-23 08:20 074 4 gusting 6 10.1
2020-Feb-23 08:10 045 4 gusting 7 10.1
2020-Feb-23 08:00 059 3 gusting 6 10.1
2020-Feb-23 07:50 061 4 gusting 7 10.2
2020-Feb-23 07:40 077 4 gusting 7 10.3
2020-Feb-23 07:30 062 6 gusting 7 10.3
2020-Feb-23 07:10 074 6 gusting 6 10.4
2020-Feb-23 07:00 062 4 gusting 6 10.4
2020-Feb-23 06:40 051 3 gusting 6 10.6
2020-Feb-23 06:20 055 4 gusting 7 10.7
2020-Feb-23 06:10 040 3 gusting 7 10.8
2020-Feb-23 06:00 044 4 gusting 6 10.9
2020-Feb-23 05:50 032 3 gusting 7 10.9
2020-Feb-23 05:40 040 0 gusting 7 11.1
2020-Feb-23 05:30 063 2 gusting 8 11.1
2020-Feb-23 05:20 076 3 gusting 8 11.2
2020-Feb-23 05:10 063 5 gusting 7 11.3
2020-Feb-23 05:00 059 2 gusting 7 11.4
2020-Feb-23 04:40 032 4 gusting 8 11.7
2020-Feb-23 04:30 067 4 gusting 8 11.8
2020-Feb-23 04:20 025 5 gusting 7 11.9
2020-Feb-23 04:00 065 3 gusting 7 12.2
2020-Feb-23 03:50 056 5 gusting 9 12.3
2020-Feb-23 03:20 061 4 gusting 7 12.8
2020-Feb-23 03:10 060 3 gusting 9 12.9
2020-Feb-23 03:00 074 3 gusting 9 13.1
2020-Feb-23 02:50 054 5 gusting 11 13.2
2020-Feb-23 02:40 085 8 gusting 10 13.3
2020-Feb-23 02:30 065 3 gusting 9 13.5
2020-Feb-23 02:20 058 2 gusting 12 13.7
2020-Feb-23 02:10 078 4 gusting 12 13.8
2020-Feb-23 02:00 076 8 gusting 12 13.9
2020-Feb-23 01:30 043 3 gusting 10 14.6
2020-Feb-23 01:20 078 3 gusting 13 14.8
2020-Feb-23 01:10 053 7 gusting 12 15.0
2020-Feb-23 01:00 074 6 gusting 11 15.2
2020-Feb-23 00:50 055 6 gusting 15 15.4
2020-Feb-23 00:40 027 12 gusting 13 15.7
2020-Feb-23 00:30 049 7 gusting 12 15.9
2020-Feb-23 00:20 047 7 gusting 9 16.1
2020-Feb-23 00:10 016 6 gusting 12 16.3
2020-Feb-23 00:00 064 6 gusting 12 16.6
2020-Feb-22 23:50 079 6 gusting 15 16.8
2020-Feb-22 23:40 061 13 gusting 18 17.1
2020-Feb-22 23:30 012 3 gusting 13 17.4
2020-Feb-22 23:20 066 7 gusting 12 17.8
2020-Feb-22 23:10 063 4 gusting 13 18.1
2020-Feb-22 23:00 041 8 gusting 14 18.5
2020-Feb-22 22:50 044 10 gusting 16 19.0
2020-Feb-22 22:40 034 5 gusting 13 19.3
2020-Feb-22 22:20 065 9 gusting 11 19.4
2020-Feb-22 22:10 074 2 gusting 11 19.6
2020-Feb-22 22:00 051 4 gusting 13 19.7
2020-Feb-22 21:50 059 6 gusting 10 20.2
2020-Feb-22 21:40 059 2 gusting 9 20.2
2020-Feb-22 21:00 082 6 gusting 10 20.7
2020-Feb-22 20:50 046 4 gusting 9 20.5
2020-Feb-22 20:40 015 4 gusting 10 20.4
2020-Feb-22 20:20 072 8 gusting 12 20.4
2020-Feb-22 20:10 062 10 gusting 13 20.2
2020-Feb-22 20:00 071 4 gusting 12 20.1
2020-Feb-22 19:50 040 11 gusting 10 20.0
2020-Feb-22 19:30 061 6 gusting 13 19.7
2020-Feb-22 19:10 020 10 gusting 14 19.8
2020-Feb-22 19:00 068 9 gusting 13 19.4
2020-Feb-22 18:40 054 7 gusting 13 19.3
2020-Feb-22 18:30 036 9 gusting 13 18.9
2020-Feb-22 18:20 088 3 gusting 12 18.5
2020-Feb-22 18:10 360 7 gusting 11 18.7
2020-Feb-22 18:00 344 7 gusting 13 18.2
2020-Feb-22 17:50 074 6 gusting 10 18.2
2020-Feb-22 17:40 043 6 gusting 12 17.6
2020-Feb-22 17:30 005 5 gusting 13 17.3
2020-Feb-22 17:10 071 7 gusting 12 16.9
2020-Feb-22 17:00 060 11 gusting 12 16.3
2020-Feb-22 16:40 015 7 gusting 13 15.6
2020-Feb-22 16:30 020 6 gusting 13 15.4
2020-Feb-22 16:20 051 4 gusting 13 14.8
2020-Feb-22 16:10 096 8 gusting 13 14.7
2020-Feb-22 16:00 360 7 gusting 13 14.1
2020-Feb-22 15:50 053 8 gusting 14 13.7
2020-Feb-22 15:40 063 13 gusting 15 13.6
2020-Feb-22 15:20 067 10 gusting 14 12.6
2020-Feb-22 15:00 061 4 gusting 13 11.5
2020-Feb-22 14:50 045 8 gusting 13 10.9
2020-Feb-22 14:40 076 8 gusting 16 10.3
2020-Feb-22 14:30 017 3 gusting 13 10.1
2020-Feb-22 14:20 046 9 gusting 18 9.6
2020-Feb-22 13:50 038 7 gusting 12 8.2
2020-Feb-22 13:40 034 8 gusting 13 7.5
2020-Feb-22 13:30 037 8 gusting 12 6.9
2020-Feb-22 13:20 058 4 gusting 12 6.2
2020-Feb-22 13:10 046 5 gusting 10 5.4
2020-Feb-22 13:00 009 4 gusting 9 5.0
2020-Feb-22 12:50 015 6 gusting 8 4.6
2020-Feb-22 12:30 049 3 gusting 6 4.2
2020-Feb-22 12:20 030 2 gusting 8 4.1
2020-Feb-22 12:10 015 6 gusting 8 4.1
2020-Feb-22 12:00 047 3 gusting 9 4.1
2020-Feb-22 11:50 005 7 gusting 7 4.0
2020-Feb-22 11:40 035 7 gusting 8 4.0
2020-Feb-22 11:30 009 6 gusting 11 4.0
2020-Feb-22 11:20 005 7 gusting 10 4.0
2020-Feb-22 11:10 059 4 gusting 9 4.0
2020-Feb-22 11:00 034 4 gusting 10 4.0
2020-Feb-22 10:50 025 8 gusting 10 4.0
2020-Feb-22 10:40 071 4 gusting 9 4.1
2020-Feb-22 10:30 022 2 gusting 9 4.2
2020-Feb-22 10:20 044 5 gusting 12 4.2
2020-Feb-22 10:10 014 6 gusting 10 4.3
2020-Feb-22 10:00 011 6 gusting 12 4.3
2020-Feb-22 09:50 012 6 gusting 12 4.4
2020-Feb-22 09:40 042 6 gusting 11 4.6
2020-Feb-22 09:30 030 6 gusting 13 4.7
2020-Feb-22 09:20 019 6 gusting 12 4.7
2020-Feb-22 09:10 051 2 gusting 13 4.7
2020-Feb-22 09:00 028 6 gusting 13 4.8
2020-Feb-22 08:30 059 4 gusting 12 5.1
2020-Feb-22 08:20 013 6 gusting 13 5.1
2020-Feb-22 08:10 009 8 gusting 13 5.2
2020-Feb-22 08:00 021 6 gusting 12 5.3
2020-Feb-22 07:50 352 4 gusting 14 5.4
2020-Feb-22 07:40 032 2 gusting 11 5.5
2020-Feb-22 07:20 082 4 gusting 13 5.7
2020-Feb-22 07:10 332 8 gusting 13 5.7
2020-Feb-22 07:00 017 9 gusting 12 5.8
2020-Feb-22 06:40 021 6 gusting 12 5.9
2020-Feb-22 06:20 047 4 gusting 11 6.0
2020-Feb-22 06:10 067 5 gusting 11 6.1
2020-Feb-22 06:00 059 3 gusting 11 6.2
2020-Feb-22 05:40 019 7 gusting 13 6.4
2020-Feb-22 05:30 053 10 gusting 13 6.5
2020-Feb-22 05:20 037 7 gusting 17 6.6
2020-Feb-22 05:10 019 8 gusting 14 6.7
2020-Feb-22 05:00 355 13 gusting 13 6.7
2020-Feb-22 04:30 017 6 gusting 13 6.9
2020-Feb-22 04:20 017 10 gusting 13 7.0
2020-Feb-22 04:10 036 8 gusting 14 7.2
2020-Feb-22 04:00 032 10 gusting 15 7.2
2020-Feb-22 03:40 042 13 gusting 16 7.3
2020-Feb-22 03:30 057 11 gusting 17 7.3
2020-Feb-22 03:20 035 11 gusting 19 7.4
2020-Feb-22 02:50 016 10 gusting 18 7.7
2020-Feb-22 02:40 050 11 gusting 20 7.8
2020-Feb-22 02:30 051 11 gusting 18 7.9
2020-Feb-22 02:20 065 6 gusting 20 8.1
2020-Feb-22 02:10 024 13 gusting 17 8.2
2020-Feb-22 02:00 033 3 gusting 14 8.2
2020-Feb-22 01:50 028 7 gusting 15 8.1
2020-Feb-22 01:40 029 13 gusting 17 8.1
2020-Feb-22 01:20 023 11 gusting 18 8.2
2020-Feb-22 01:10 067 13 gusting 18 8.4
2020-Feb-22 01:00 018 12 gusting 18 8.6
2020-Feb-22 00:40 069 13 gusting 19 8.7
2020-Feb-22 00:10 039 12 gusting 24 8.7
2020-Feb-21 23:50 052 15 gusting 20 8.6
2020-Feb-21 23:40 061 13 gusting 13 8.6
2020-Feb-21 23:30 071 9 gusting 18 8.6
2020-Feb-21 23:20 050 9 gusting 18 8.7
2020-Feb-21 23:00 029 9 gusting 17 8.9
2020-Feb-21 22:50 013 10 gusting 16 9.1
2020-Feb-21 22:40 052 14 gusting 19 9.2
2020-Feb-21 22:10 055 8 gusting 22 9.5
2020-Feb-21 21:50 085 6 gusting 17 9.7
2020-Feb-21 21:40 012 7 gusting 17 9.7
2020-Feb-21 21:30 058 10 gusting 16 9.8
2020-Feb-21 21:20 054 6 gusting 18 10.0
2020-Feb-21 21:10 043 6 gusting 19 10.1
2020-Feb-21 20:40 051 11 gusting 24 10.3
2020-Feb-21 20:30 355 15 gusting 21 10.4
2020-Feb-21 20:10 064 9 gusting 22 11.3
2020-Feb-21 19:50 054 14 gusting 23 11.4
2020-Feb-21 19:30 060 10 gusting 19 11.5
2020-Feb-21 19:20 047 7 gusting 16 11.9
2020-Feb-21 19:10 346 11 gusting 16 12.1
2020-Feb-21 19:00 028 11 gusting 18 12.0
2020-Feb-21 18:50 060 11 gusting 18 11.7
2020-Feb-21 18:40 030 12 gusting 19 12.1
2020-Feb-21 18:30 026 15 gusting 20 11.8
2020-Feb-21 18:20 019 14 gusting 21 11.4
2020-Feb-21 18:10 019 11 gusting 17 11.8
2020-Feb-21 18:00 053 6 gusting 19 11.9
2020-Feb-21 17:50 056 8 gusting 17 12.1
2020-Feb-21 17:40 067 9 gusting 20 11.9
2020-Feb-21 17:20 065 9 gusting 19 11.7
2020-Feb-21 17:00 017 8 gusting 23 11.2
2020-Feb-21 16:50 073 6 gusting 22 11.3
2020-Feb-21 16:40 059 11 gusting 19 11.5
2020-Feb-21 16:30 063 13 gusting 19 11.2
2020-Feb-21 16:20 030 13 gusting 19 11.3
2020-Feb-21 16:10 070 5 gusting 13 10.9
2020-Feb-21 16:00 070 8 gusting 19 10.1
2020-Feb-21 15:50 015 6 gusting 18 9.8
2020-Feb-21 15:40 355 12 gusting 15 10.0
2020-Feb-21 15:30 360 8 gusting 17 10.3
2020-Feb-21 15:20 316 12 gusting 19 9.9
2020-Feb-21 15:10 050 6 gusting 17 9.6
2020-Feb-21 15:00 040 6 gusting 19 9.2
2020-Feb-21 14:50 342 8 gusting 16 9.6
2020-Feb-21 14:40 044 5 gusting 14 9.6
2020-Feb-21 14:30 062 7 gusting 19 9.4
2020-Feb-21 14:20 026 9 gusting 16 9.3
2020-Feb-21 14:10 024 8 gusting 19 9.3
2020-Feb-21 13:50 005 10 gusting 19 9.7
2020-Feb-21 13:40 042 9 gusting 19 9.7
2020-Feb-21 13:30 055 12 gusting 13 10.1
2020-Feb-21 13:10 005 7 gusting 13 10.1
2020-Feb-21 12:50 043 5 gusting 19 10.2
2020-Feb-21 12:30 044 7 gusting 15 10.7
2020-Feb-21 12:20 360 9 gusting 18 10.9
2020-Feb-21 12:10 045 6 gusting 14 11.0
2020-Feb-21 12:00 332 14 gusting 16 11.0
2020-Feb-21 11:50 065 8 gusting 13 11.1
2020-Feb-21 11:40 348 5 gusting 17 11.3
2020-Feb-21 11:20 036 9 gusting 18 11.4
2020-Feb-21 11:10 057 5 gusting 16 11.5
2020-Feb-21 11:00 034 6 gusting 19 11.5